Vorticity
nan nan nan nan nan nan nan nan nan nan nan nan nan nan nan nan nan nan nan nan nan nan nan nan nan nan nan nan nan nan nan nan nan nan nan nan nan nan nan nan nan nan nan nan nan nan nan nan nan nan nan nan nan nan nan nan nan nan nan nan nan nan nan nan nan nan nan nan nan nan nan nan nan nan nan nan nan nan nan nan nan nan nan nan nan nan nan nan nan nan nan nan nan nan nan nan nan nan nan nan nan nan nan
nan 5 4 5 5 6 6 7 7 7 7 7 7 7 7 8 7 7 7 10 12 12 8 4 2 -0 -3 3 14 22 24 17 8 7 9 10 9 9 6 4 4 6 8 9 9 7 2 -0 3 4 2 -1 -0 3 11 12 6 5 2 3 5 7 16 20 14 8 4 3 3 3 3 3 4 5 5 6 6 5 4 4 5 6 7 7 6 6 5 5 4 4 3 3 5 6 6 5 5 4 3 3 5 6 nan
nan 5 5 4 5 5 6 6 6 6 7 7 7 7 7 8 7 7 6 8 12 13 11 7 5 2 -4 -3 7 18 28 23 12 9 9 8 8 8 7 5 4 4 6 8 9 10 6 0 -1 1 3 1 -1 0 8 11 10 6 2 4 8 9 16 19 14 7 3 3 3 3 4 4 5 5 6 5 5 4 3 4 5 6 6 6 6 6 6 5 4 4 3 3 4 5 6 7 7 5 4 3 4 5 nan
nan 7 5 4 4 5 5 5 6 6 6 6 6 6 7 8 8 8 5 6 10 13 13 10 7 4 -4 -9 -1 11 29 29 18 14 10 7 6 6 7 6 4 4 5 7 8 8 5 3 2 1 5 5 2 2 5 7 10 7 4 5 11 10 16 19 12 6 4 3 4 5 5 6 6 6 6 6 4 4 3 4 5 5 5 5 5 5 6 6 5 4 3 3 3 4 5 7 8 6 5 3 4 5 nan
nan 8 7 6 5 5 5 5 5 6 6 6 6 6 6 8 8 9 5 4 7 11 15 14 10 7 -3 -11 -7 3 25 31 23 18 13 8 5 3 5 6 5 4 5 6 7 4 2 4 4 5 6 6 3 5 5 6 10 8 5 6 15 16 14 13 10 6 3 4 4 5 6 6 7 7 7 6 5 4 3 4 5 5 5 4 4 5 6 6 6 5 4 4 3 3 5 6 7 6 5 4 4 4 nan
nan 9 8 7 6 5 5 5 5 5 5 5 6 5 6 7 8 9 6 3 4 9 16 17 15 9 -1 -10 -10 -3 16 28 26 21 14 10 6 1 3 5 6 6 5 6 7 3 1 1 -1 4 6 7 4 6 5 6 9 7 6 7 15 19 13 11 8 6 3 4 5 6 6 6 6 7 7 7 6 4 3 4 4 5 5 4 4 5 6 6 6 5 5 4 4 4 4 5 5 5 5 4 4 4 nan
nan 9 9 8 7 6 5 5 5 5 5 5 5 5 6 7 8 8 6 3 3 7 14 19 19 12 3 -6 -10 -8 7 25 30 22 14 10 7 3 3 4 6 7 5 7 8 4 3 2 -1 2 4 8 7 3 5 9 8 7 5 6 13 17 14 12 9 6 5 4 5 5 5 5 5 7 7 7 6 5 4 4 4 5 5 5 5 5 6 6 5 5 5 5 4 4 4 4 4 5 4 5 5 4 nan
nan 9 9 9 8 7 6 5 5 5 5 5 5 5 6 6 7 8 7 4 2 4 11 19 23 16 7 -2 -9 -11 -2 20 32 26 15 10 7 6 5 5 6 7 7 8 8 5 4 3 3 5 3 5 10 8 7 9 9 7 4 7 12 14 14 12 9 7 6 6 6 6 5 4 4 5 6 7 6 5 4 4 5 5 5 5 6 6 6 6 6 5 5 5 5 5 5 5 5 5 5 6 5 5 nan
nan 9 8 8 8 7 7 6 6 6 5 5 5 5 6 6 7 8 7 4 2 2 7 18 25 21 12 1 -8 -13 -8 14 30 29 18 10 7 7 7 7 8 8 9 9 9 6 2 2 5 6 6 6 12 10 5 8 12 7 4 10 13 15 14 11 9 8 7 7 7 6 5 3 3 4 5 6 6 5 4 4 5 5 6 6 6 6 7 6 6 5 5 5 5 5 6 6 6 5 6 6 6 5 nan
nan 8 8 8 7 7 7 7 6 6 6 6 5 6 6 6 7 7 7 5 2 1 5 16 24 24 16 3 -6 -12 -9 8 22 29 23 13 8 7 7 9 9 10 11 10 10 8 -0 -1 7 5 7 9 11 9 4 7 14 10 6 13 17 15 12 9 8 7 7 7 7 7 6 3 3 3 4 4 4 4 4 4 4 5 6 6 6 6 7 7 6 6 5 5 6 7 7 6 6 5 6 6 5 5 nan
nan 9 8 8 8 8 8 8 7 7 7 6 6 6 6 7 7 7 7 6 3 2 4 14 23 27 19 4 -4 -10 -9 2 15 28 28 17 10 7 6 9 10 12 13 12 10 8 2 -1 5 2 5 11 9 7 2 7 13 9 8 17 19 14 10 8 7 6 7 7 7 7 6 4 3 3 4 4 3 3 4 4 5 5 5 5 5 6 6 7 6 6 6 6 6 7 7 6 5 5 5 5 5 5 nan
nan 9 9 11 10 9 9 9 9 8 8 7 7 7 7 7 7 7 7 6 5 3 4 12 21 30 21 4 -2 -7 -7 -2 9 28 33 22 12 8 8 9 12 14 14 12 9 6 4 1 3 3 6 10 7 5 2 8 13 7 10 20 18 14 10 7 6 6 6 6 7 7 7 6 4 4 4 4 4 3 4 5 5 5 4 3 4 5 6 6 6 7 6 6 7 8 7 6 6 5 5 5 5 6 nan
nan 11 12 13 13 11 10 9 9 9 8 8 8 8 8 7 7 7 7 7 6 4 5 10 19 31 21 3 -4 -7 -6 -4 6 26 36 27 16 9 8 10 12 13 14 10 4 -0 0 6 8 8 5 7 8 5 4 9 11 10 16 21 16 12 8 6 6 5 5 6 6 6 7 7 6 5 5 5 5 4 4 5 6 5 4 3 3 4 5 6 7 7 7 7 7 7 7 6 6 5 5 5 6 6 nan
nan 14 14 14 13 11 10 9 9 8 7 7 7 7 7 7 7 7 7 8 7 5 5 9 17 32 24 3 -6 -10 -7 -3 5 23 35 30 20 11 8 11 13 12 10 2 -4 -3 2 9 11 12 7 5 10 8 4 6 10 14 21 19 15 11 7 6 5 5 4 5 5 5 6 7 7 6 6 5 5 5 4 5 7 6 4 3 3 4 5 6 6 7 7 7 7 7 6 6 5 5 5 6 7 6 nan
nan 14 14 12 11 10 9 8 7 7 6 5 5 5 6 6 6 6 7 7 7 6 5 8 17 31 26 8 -6 -12 -7 -2 5 18 31 32 24 13 10 14 13 10 1 -8 -5 2 6 7 8 10 9 7 10 10 6 5 11 18 23 17 14 10 7 5 4 4 4 4 4 4 4 5 6 6 6 5 5 5 5 5 6 7 5 4 4 5 5 6 6 7 7 8 7 7 6 6 6 6 6 6 7 6 nan
nan 12 11 11 10 10 9 8 7 6 5 4 4 4 4 5 5 6 6 7 7 6 5 7 15 28 29 15 -2 -13 -8 1 6 14 26 32 26 15 12 14 10 3 -7 -8 1 8 7 3 4 7 10 9 7 8 7 7 13 20 22 16 13 10 6 4 4 4 4 4 3 3 3 4 5 5 5 5 5 5 4 5 6 6 6 5 5 5 6 6 6 6 7 8 7 6 6 6 6 6 6 7 6 5 nan
nan 10 10 10 10 10 10 9 8 8 7 6 5 5 5 5 6 6 6 7 7 7 5 6 13 24 30 23 6 -14 -11 3 7 13 25 32 28 18 12 11 5 -4 -8 -1 6 10 6 -0 2 6 11 10 5 7 8 8 16 21 19 15 12 9 5 4 4 5 5 4 4 4 4 3 4 4 5 5 5 5 4 4 5 6 6 6 5 5 6 6 6 6 7 8 7 7 6 6 6 6 7 7 6 5 nan
nan 7 9 10 11 11 11 10 10 9 8 7 7 6 6 6 6 6 7 8 8 8 6 6 11 20 30 28 12 -12 -14 2 5 9 24 35 31 24 12 5 2 -1 -1 4 8 8 3 -1 3 6 12 11 6 6 8 10 18 20 17 14 11 8 5 4 4 5 5 5 5 5 5 4 5 5 4 5 5 5 4 4 5 5 5 5 5 5 6 6 6 5 6 7 7 7 6 6 6 6 7 6 5 4 nan
nan 10 11 12 13 13 12 12 11 11 10 9 8 8 8 8 8 8 8 9 9 9 7 6 10 17 27 31 20 -4 -12 -1 2 4 14 28 34 33 17 3 3 6 7 10 11 6 1 -1 1 3 11 13 9 7 7 11 18 19 16 13 10 8 5 4 4 5 6 6 6 7 6 6 6 6 5 5 5 5 5 5 5 5 5 5 5 5 6 6 5 5 5 6 7 7 6 5 5 5 6 6 5 4 nan
nan 17 17 18 18 17 17 16 16 15 15 12 12 13 14 14 14 13 11 12 12 11 9 8 12 20 28 34 26 6 -6 -0 3 4 5 14 26 33 24 9 5 8 13 16 12 5 0 1 1 1 7 13 13 10 6 10 18 19 15 12 9 7 5 3 4 5 6 6 7 7 7 6 7 7 6 6 6 5 5 5 4 4 5 5 4 5 6 6 5 5 5 5 6 7 6 5 5 5 5 5 5 4 nan
nan 18 20 21 21 22 23 23 22 22 22 18 17 20 23 23 22 20 18 19 19 17 14 15 16 21 31 34 25 10 -1 1 4 4 3 7 14 21 22 13 6 5 12 17 11 5 3 4 4 3 5 9 13 12 8 12 18 18 14 11 9 6 4 3 5 6 7 7 7 7 6 6 6 7 7 7 6 6 6 5 4 4 4 4 4 4 5 6 5 5 4 4 5 6 6 6 5 5 4 5 5 4 nan
nan 11 13 15 17 19 21 21 22 22 23 22 20 20 21 22 23 23 22 22 22 22 19 19 17 17 26 28 22 12 2 2 6 4 2 5 10 15 18 14 6 -1 4 12 10 9 7 6 6 6 5 6 10 12 13 16 15 16 14 11 8 6 4 4 5 7 8 7 7 6 6 5 5 6 7 7 7 7 7 5 4 4 5 4 4 4 4 5 5 5 4 4 4 5 6 6 6 5 5 4 4 4 nan
nan 7 8 9 10 11 13 14 15 16 18 20 17 15 14 15 16 18 19 18 19 20 18 13 12 13 18 22 19 12 4 1 4 5 3 2 6 13 19 19 10 -4 -3 6 8 11 11 7 7 7 6 6 7 11 14 15 14 15 14 11 8 6 4 4 6 8 8 7 6 6 6 5 4 4 6 7 7 7 8 5 5 4 4 4 4 4 4 4 4 5 4 4 4 4 6 6 7 6 5 5 4 4 nan
nan 8 8 8 7 8 8 9 9 10 12 15 12 11 10 11 11 12 12 13 15 17 16 10 9 12 15 16 14 11 7 1 -1 2 4 2 3 9 22 26 15 -2 -4 3 4 8 10 8 7 8 7 7 6 10 14 14 14 15 14 11 9 7 4 4 6 9 8 6 6 5 6 6 5 4 5 6 6 6 7 6 6 4 4 4 5 6 5 4 4 4 4 4 4 4 5 7 7 7 6 5 5 4 nan
nan 8 8 8 7 7 8 9 9 9 10 11 10 9 9 9 9 9 9 10 12 14 15 12 10 12 13 12 10 10 9 4 -1 -1 2 1 1 5 20 29 19 2 -5 0 1 4 7 7 7 8 9 7 6 10 14 17 17 14 12 11 10 7 5 4 6 9 9 7 6 5 6 7 6 5 5 5 4 5 5 5 6 5 4 5 7 9 7 5 4 4 3 3 3 3 5 7 7 8 7 6 6 5 nan
nan 8 8 7 7 8 8 9 9 8 8 9 9 9 9 9 9 10 10 9 10 11 13 11 10 11 13 11 8 9 9 6 3 1 0 -0 0 2 15 28 24 10 -4 -4 -0 4 6 6 5 6 8 7 7 10 14 16 17 14 11 11 11 9 6 5 6 8 9 8 7 6 6 7 7 6 5 4 4 3 2 3 4 4 5 7 10 13 10 5 4 4 3 3 3 3 4 6 7 7 7 6 6 5 nan
nan 8 8 8 8 9 9 8 8 8 8 8 8 9 9 10 10 10 11 11 11 11 12 13 12 11 14 12 8 7 9 7 6 4 1 1 1 3 12 25 29 21 3 -7 -3 4 8 6 5 4 5 5 7 9 16 17 13 12 11 10 11 10 7 5 5 6 8 8 7 7 6 8 8 7 6 5 5 4 2 3 3 4 6 10 14 16 12 6 5 4 4 2 3 4 5 5 6 7 6 6 6 6 nan
nan 8 10 11 10 10 9 8 8 8 8 8 9 9 10 10 10 10 11 11 11 11 12 14 13 13 15 13 10 8 8 7 5 3 3 4 4 4 8 19 30 28 13 -3 -5 -0 7 7 6 5 3 3 5 7 14 18 15 13 10 9 10 10 9 6 5 6 8 8 7 6 7 8 8 7 6 6 5 5 4 5 5 5 7 11 15 16 12 7 6 5 5 4 7 9 8 5 4 5 5 5 6 6 nan
nan 9 9 9 9 8 8 8 8 9 9 9 9 10 11 11 10 9 10 10 10 10 10 11 11 12 13 13 10 9 7 8 8 2 1 3 4 4 5 11 24 31 24 6 -3 -3 3 7 7 5 5 3 3 5 10 17 19 15 9 8 9 10 10 8 7 8 8 7 6 5 8 9 8 7 7 6 6 6 6 6 7 6 7 10 13 14 11 7 6 6 8 11 15 17 12 7 4 3 4 5 6 7 nan
nan 11 9 8 8 8 8 9 9 9 10 10 10 10 11 11 10 9 9 10 9 9 8 8 8 10 11 11 10 8 6 7 8 5 2 2 0 1 3 7 15 27 29 14 4 3 5 8 8 4 6 8 4 4 6 14 20 17 10 8 8 9 9 9 8 9 7 7 6 6 8 9 7 7 6 6 6 6 6 7 8 7 7 9 11 12 9 5 6 7 11 18 24 24 15 8 5 3 3 5 7 8 nan
nan 11 11 10 10 9 10 10 11 11 10 11 10 10 10 10 9 9 9 9 9 9 8 7 7 9 10 10 10 8 8 8 7 8 6 3 1 1 3 4 9 20 27 20 11 7 10 12 8 2 4 9 8 6 6 9 17 20 13 8 8 8 8 8 9 9 10 9 7 6 8 8 8 7 6 5 6 6 6 7 7 7 8 8 8 8 7 4 5 6 11 19 24 22 15 8 5 4 4 6 8 8 nan
nan 10 11 10 11 10 10 11 12 13 12 12 11 11 10 9 8 8 8 8 8 8 8 7 7 7 8 10 10 10 10 8 7 9 9 6 6 6 7 7 11 19 21 19 13 7 8 13 10 6 6 7 5 6 7 7 15 20 17 11 8 7 7 8 9 10 12 13 10 8 7 9 9 7 5 5 6 6 6 6 6 6 7 7 7 7 6 5 5 5 8 15 17 14 10 7 5 4 5 8 9 8 nan
nan 10 9 9 10 12 13 12 11 10 9 9 10 12 11 9 8 7 7 8 8 8 8 7 7 7 6 8 10 10 10 9 6 8 10 8 8 9 11 14 17 21 18 15 12 6 10 15 14 8 6 7 3 3 6 6 12 15 18 15 11 8 6 7 7 8 11 15 14 12 9 8 8 7 6 7 7 5 5 6 5 5 6 6 7 7 7 6 5 5 6 9 10 8 6 5 4 4 5 8 9 9 nan
nan 9 9 8 10 11 12 11 10 8 6 7 10 12 11 7 6 7 6 7 8 8 8 8 7 8 6 6 8 9 10 10 8 7 9 8 5 5 6 14 22 26 22 14 9 3 8 14 15 11 7 7 6 3 2 5 8 10 17 18 14 10 7 6 6 6 9 14 15 14 12 9 8 8 8 8 8 6 5 5 5 5 4 5 6 7 8 7 6 5 4 5 5 5 4 3 4 4 4 6 7 8 nan
nan 10 9 9 9 9 10 10 10 9 8 9 12 12 10 8 7 8 8 8 9 8 8 8 8 8 7 5 6 7 9 10 8 8 9 6 1 0 2 8 16 25 28 18 10 5 6 10 12 13 10 7 7 3 0 2 4 7 17 21 14 10 9 7 6 5 7 11 13 15 14 11 8 8 9 10 9 6 6 6 6 5 5 5 5 6 7 7 6 5 4 4 3 3 3 3 4 4 4 5 5 6 nan
nan 11 9 9 9 9 9 10 10 9 9 9 11 12 12 12 10 9 9 9 9 9 9 8 8 8 8 7 7 7 8 8 8 8 9 7 2 1 2 4 8 16 24 19 11 10 12 10 6 10 12 9 5 3 1 1 3 6 13 18 15 12 11 10 8 7 7 9 12 14 15 13 11 10 12 12 10 8 7 6 7 7 6 6 5 5 6 7 6 6 6 5 5 3 3 3 4 4 5 4 4 5 nan
nan 13 11 10 10 9 8 9 9 9 9 8 10 12 14 14 11 9 8 8 8 8 9 9 9 9 8 8 8 8 6 6 7 6 8 9 6 6 6 6 7 12 18 16 10 11 17 14 5 4 7 7 6 6 3 3 5 3 6 12 13 13 11 11 11 9 9 9 11 13 14 14 14 14 14 12 11 9 7 6 8 8 8 7 6 5 5 6 6 7 9 10 10 6 3 2 4 4 6 6 5 5 nan
nan 18 16 14 13 11 10 9 8 9 9 9 10 9 10 11 10 10 9 9 8 8 8 10 10 10 8 7 8 9 7 5 5 6 7 8 6 6 7 7 8 10 14 14 9 10 17 18 10 4 2 5 6 7 4 5 7 4 3 7 9 11 12 12 12 8 8 11 13 12 12 13 15 15 15 13 11 10 8 7 8 9 9 8 7 5 4 4 4 6 11 16 16 10 5 3 4 4 7 7 6 6 nan
nan 17 17 16 15 14 13 9 7 8 10 9 9 7 7 9 9 9 10 11 11 11 9 9 9 10 9 8 9 11 9 4 4 6 7 7 6 4 6 7 8 9 12 14 11 8 12 18 15 9 5 5 6 7 5 6 9 5 2 5 7 8 10 13 12 9 6 9 14 16 13 12 13 14 15 14 13 12 10 8 9 9 9 8 8 6 4 3 3 5 10 16 18 14 8 5 5 5 7 7 6 6 nan
nan 12 12 13 13 13 10 7 11 14 14 11 9 8 8 8 8 9 10 11 13 14 11 9 8 8 9 9 10 11 11 7 4 6 9 8 5 3 3 6 8 9 11 15 14 12 10 16 18 13 9 6 6 7 7 9 9 7 3 3 6 7 8 11 11 8 7 7 11 16 19 15 14 13 14 14 14 14 11 9 9 9 9 9 8 7 5 3 2 3 7 13 15 13 9 7 6 6 6 7 6 5 nan
nan 10 10 10 9 7 4 7 16 21 19 14 12 10 10 10 9 9 10 11 15 18 17 11 7 7 9 10 9 10 10 8 6 7 9 9 6 3 1 2 6 8 10 12 14 16 14 16 20 16 10 7 6 7 9 10 8 6 5 5 7 7 7 10 11 7 6 8 8 12 19 21 17 14 13 14 14 13 12 10 9 9 9 9 9 8 6 5 3 2 4 7 9 9 7 7 7 6 6 6 5 4 nan
nan 9 9 9 8 5 3 9 17 20 18 16 14 12 11 11 10 10 10 11 15 20 21 14 9 6 8 10 10 10 9 7 7 8 10 9 8 4 1 -0 2 5 8 11 12 15 16 16 18 16 14 12 9 9 9 9 8 6 7 8 9 8 8 7 8 7 6 8 9 9 14 21 20 16 14 13 12 12 11 10 9 9 10 10 10 9 8 7 5 3 2 3 4 4 5 5 6 6 6 6 5 4 nan
nan 8 8 8 8 6 6 11 16 17 15 14 14 13 13 13 13 12 10 11 15 18 19 16 11 7 7 9 10 11 9 6 6 8 11 11 10 6 2 -0 1 3 8 11 11 10 12 14 14 13 14 17 17 15 10 7 8 7 7 9 10 10 9 6 5 8 7 6 8 9 9 16 20 18 15 14 12 11 10 8 8 9 11 11 10 9 7 8 7 6 3 2 2 2 2 3 4 4 5 6 6 5 nan
nan 9 8 9 8 6 7 13 16 15 12 10 10 12 14 15 16 17 15 14 15 16 15 15 12 9 6 7 9 10 9 7 6 8 10 11 11 9 4 0 3 5 9 13 12 10 7 9 10 9 9 16 21 21 15 9 8 5 5 7 10 13 12 8 6 7 8 5 5 7 7 9 14 17 17 15 14 13 11 8 7 9 12 14 12 9 7 8 8 8 6 5 3 2 2 2 2 2 4 5 6 6 nan
nan 9 8 8 7 5 7 15 17 15 10 8 7 9 11 13 16 19 22 21 18 14 11 12 13 10 5 5 7 9 9 8 8 9 11 12 13 11 4 0 5 8 11 14 15 15 10 6 6 8 6 7 13 19 19 15 10 5 5 6 7 12 12 9 8 8 7 4 4 8 10 5 6 11 15 15 16 18 16 12 9 8 12 15 15 13 8 8 9 10 10 8 6 5 3 3 3 3 3 4 5 6 nan
nan 10 8 8 7 5 8 15 16 13 10 8 7 8 9 10 12 13 19 23 24 19 13 10 11 12 9 6 6 8 10 10 10 10 11 11 13 12 4 1 6 9 13 14 15 17 16 10 6 8 7 2 3 10 17 18 12 8 8 8 7 10 11 10 10 9 5 3 5 10 13 8 5 3 9 13 14 17 19 18 13 9 10 13 16 16 11 8 10 12 12 10 9 8 7 6 5 5 5 5 5 6 nan
nan 10 7 6 8 7 8 13 16 13 9 8 7 6 9 11 9 8 12 18 22 23 20 16 12 12 14 11 8 8 11 11 11 11 11 12 14 15 6 2 7 9 11 13 13 12 13 10 9 10 10 3 1 4 12 15 12 10 10 11 10 11 10 10 10 9 5 4 8 9 10 11 8 -0 4 12 13 14 15 17 16 12 9 10 14 17 15 11 11 12 13 12 11 11 10 9 8 7 6 6 6 6 nan
nan 10 6 4 7 8 8 10 14 13 10 8 6 4 6 9 9 8 12 17 17 18 20 23 20 16 14 13 11 11 11 11 11 10 10 12 12 13 7 4 6 8 10 13 12 9 4 5 9 11 11 7 3 5 10 10 8 7 10 11 12 12 10 9 9 7 5 7 10 9 6 8 9 2 3 11 13 13 12 12 15 15 12 9 11 14 16 14 13 12 13 12 11 11 11 10 9 8 7 7 7 7 nan
nan 12 8 4 5 8 7 7 12 12 10 8 6 3 2 5 8 10 12 17 20 18 19 22 21 20 17 14 12 12 12 10 9 9 9 7 7 7 5 4 6 8 11 14 15 12 2 0 7 12 11 7 6 7 11 10 7 5 7 11 12 15 12 8 8 6 7 9 10 8 4 3 4 4 4 9 13 13 11 9 10 13 14 12 12 13 16 15 14 14 13 12 10 10 10 9 9 8 7 7 7 7 nan
nan 12 10 7 5 7 6 7 13 13 10 7 6 5 3 4 6 6 7 14 23 23 23 19 16 17 18 15 14 14 14 12 10 7 7 6 5 3 3 4 7 8 11 15 18 20 11 1 6 13 10 6 7 9 12 13 12 7 7 10 11 14 14 10 8 7 11 13 9 7 4 1 0 0 3 8 12 13 11 8 9 11 12 12 12 12 17 19 16 14 14 13 12 10 10 9 8 7 7 7 7 7 nan
nan 11 11 11 7 6 5 7 12 12 10 8 7 8 3 2 9 9 3 6 16 21 24 20 15 13 14 14 13 15 16 14 10 5 6 11 10 8 6 6 6 8 12 15 17 19 15 7 9 13 10 4 5 8 10 12 14 11 10 12 12 12 12 11 11 12 14 14 12 9 6 1 -2 -2 2 7 8 9 9 9 10 11 10 9 8 10 13 17 19 19 16 13 12 12 12 11 9 7 6 6 7 7 nan
nan 13 14 13 10 8 5 6 9 11 12 12 10 10 4 2 10 11 5 2 7 12 19 20 17 17 14 10 8 10 14 16 11 5 6 13 12 12 10 8 7 8 12 13 14 11 9 8 10 16 16 7 4 5 7 8 10 11 12 11 12 11 9 9 11 13 15 15 14 13 10 4 1 0 3 5 4 4 5 7 8 10 11 9 8 8 9 11 14 18 19 15 13 11 12 14 12 10 8 7 7 7 nan
nan 13 17 16 12 10 8 6 8 12 14 13 11 11 7 5 8 9 9 8 8 9 9 11 17 21 18 12 8 6 9 14 13 8 11 13 9 7 8 7 8 9 10 11 10 9 6 6 8 13 20 16 9 5 4 3 5 8 10 11 11 11 10 10 11 12 14 15 14 12 11 9 7 7 7 6 4 3 5 4 3 6 10 10 10 9 9 11 13 14 16 16 16 13 13 15 15 14 11 8 8 8 nan
nan 8 15 19 15 12 7 6 8 10 13 13 10 9 6 6 10 8 8 11 11 12 9 6 11 19 20 14 12 8 6 8 11 11 15 11 6 4 5 6 9 10 9 10 10 12 11 9 7 8 16 22 16 9 4 3 3 6 9 10 9 9 11 12 11 11 12 14 13 13 10 9 10 11 9 8 8 7 8 6 2 1 5 8 8 10 10 13 15 14 13 15 15 14 15 15 15 15 14 11 10 8 nan
nan 10 11 14 15 14 7 6 11 10 10 11 9 7 5 5 9 8 7 7 9 13 16 11 8 16 19 14 12 10 8 5 9 10 13 12 9 8 8 7 7 7 7 9 10 11 14 15 12 9 12 21 20 15 9 6 5 4 7 9 6 5 8 11 12 12 11 12 12 15 13 11 12 13 9 6 8 10 11 8 4 1 1 4 6 9 9 9 10 10 11 14 15 14 14 15 13 13 13 12 10 9 nan
nan 11 10 8 11 14 12 8 11 12 12 11 8 7 7 6 5 6 7 6 7 11 17 14 7 12 19 17 14 14 12 7 7 9 11 12 10 12 13 11 8 6 6 8 10 11 14 15 11 9 11 16 19 16 12 10 9 6 7 9 7 4 4 7 10 12 11 10 11 14 14 14 15 15 10 7 9 10 11 9 6 5 4 4 6 8 10 5 3 6 9 10 12 15 16 15 12 11 11 11 10 9 nan
nan 7 10 11 11 13 14 9 7 12 14 11 9 7 7 7 5 3 4 7 9 9 14 15 5 3 13 20 19 18 16 14 9 7 9 10 9 10 12 15 13 10 10 11 11 11 13 12 9 8 10 10 15 15 14 13 12 11 10 9 9 6 4 3 4 6 7 7 8 11 12 12 13 14 13 10 10 10 10 10 9 7 7 6 5 6 12 10 3 4 8 7 8 15 19 15 13 10 9 10 10 10 nan
nan 5 6 11 12 14 16 12 8 9 10 10 12 10 7 7 7 6 2 4 8 7 14 18 9 2 5 16 20 18 15 16 15 11 9 10 8 8 9 11 12 14 16 17 16 13 13 11 9 9 10 7 9 11 13 13 14 15 15 10 8 8 10 6 2 -1 -2 1 5 7 9 11 12 13 14 13 10 12 11 9 10 9 8 8 6 6 10 12 9 7 9 11 11 15 20 17 13 11 9 9 9 10 nan
nan 9 6 8 10 15 16 15 12 10 7 8 11 10 7 7 8 9 6 2 3 5 13 17 13 9 4 9 17 14 9 10 14 16 17 16 10 8 7 7 8 10 13 15 15 14 12 10 10 11 10 8 7 7 7 10 13 16 19 15 9 6 13 17 11 2 -3 -3 -0 1 3 8 12 12 13 15 12 12 12 10 9 8 8 8 8 8 9 10 10 9 12 15 15 17 17 17 15 12 10 8 7 8 nan
nan 12 7 4 8 14 15 14 14 14 10 9 9 8 6 6 8 10 10 5 3 6 11 14 14 13 8 6 12 13 8 7 10 15 22 19 12 9 8 7 6 7 7 7 8 9 8 8 9 11 10 11 10 9 7 8 10 14 19 22 17 10 9 19 22 16 9 5 1 -3 -3 1 7 10 12 13 13 11 13 14 9 7 7 7 9 10 11 8 8 9 9 11 15 18 17 16 16 14 11 8 7 7 nan
nan nan nan nan nan nan nan nan nan nan nan nan nan nan nan nan nan nan nan nan nan nan nan nan nan nan nan nan nan nan nan nan nan nan nan nan nan nan nan nan nan nan nan nan nan nan nan nan nan nan nan nan nan nan nan nan nan nan nan nan nan nan nan nan nan nan nan nan nan nan nan nan nan nan nan nan nan nan nan nan nan nan nan nan nan nan nan nan nan nan nan nan nan nan nan nan nan nan nan nan nan nan nan
CAPE
55 48 45 38 33 33 26 20 14 14 9 6 7 7 44 95 95 186 406 754 754 671 557 507 537 537 592 866 1293 1293 1551 1422 1654 1654 1975 2104 2104 1968 1892 1787 1787 1803 1716 1472 1282 1282 1119 934 1145 1145 1037 890 959 959 847 628 628 627 723 952 952 889 915 814 856 856 790 675 668 668 660 735 666 666 562 497 497 446 318 251 251 305 363 393 399 399 432 433 434 434 466 470 355 355 192 84 84 24 14 72 72 136 124
62 56 49 44 35 35 32 26 21 21 18 13 10 10 20 65 65 133 270 632 632 689 609 493 486 486 521 651 1068 1068 1535 1542 1637 1637 1950 2076 2076 2042 1918 1809 1809 1765 1731 1536 1255 1255 1118 1166 1103 1103 1051 902 965 965 979 715 715 750 721 874 874 810 817 1076 859 859 798 761 716 716 788 867 719 719 614 549 549 492 327 257 257 286 343 347 353 353 413 415 445 445 478 511 449 449 261 105 105 27 16 61 61 107 102
67 62 53 48 38 38 35 32 27 27 25 20 15 15 14 41 41 92 164 465 465 674 665 509 466 466 481 521 865 865 1351 1611 1713 1713 1923 2031 2031 2071 1946 1786 1786 1732 1636 1447 1172 1172 1044 911 1061 1061 1062 955 806 806 940 612 612 724 764 844 844 813 944 1087 863 863 846 769 762 762 879 921 770 770 596 565 565 509 314 242 242 268 299 328 334 334 366 395 424 424 488 553 521 521 348 149 149 44 13 40 40 82 82
68 66 57 48 40 40 35 33 30 30 28 23 17 17 16 20 20 67 116 316 316 624 764 527 451 451 463 405 598 598 1133 1634 1771 1771 1834 1928 1928 2034 2025 1715 1715 1606 1502 1262 999 999 801 539 739 739 996 882 700 700 951 477 477 550 658 775 775 740 710 1186 869 869 848 811 808 808 886 931 744 744 609 545 545 487 323 229 229 250 257 286 291 291 323 351 408 408 438 528 562 562 411 220 220 78 35 34 34 63 63
63 63 59 48 42 42 39 35 31 31 27 23 19 19 16 18 18 35 84 199 199 456 706 620 441 441 415 336 411 411 830 1566 1790 1790 1804 1872 1872 1944 1900 1641 1641 1489 1335 1100 804 804 1066 517 687 687 975 857 678 678 879 518 518 430 596 705 705 636 919 1198 920 920 849 772 857 857 935 936 718 718 553 491 491 440 305 259 259 233 220 227 251 251 304 310 338 338 366 444 506 506 421 270 270 100 29 19 19 36 48
60 61 58 49 45 45 41 37 31 31 27 23 19 19 16 16 16 21 59 131 131 306 587 679 462 462 400 273 294 294 599 1349 1814 1814 1797 1748 1748 1776 1730 1564 1564 1424 1224 995 666 666 707 866 816 816 789 755 659 659 850 530 530 474 604 601 601 543 923 1164 976 976 855 774 822 822 986 942 723 723 532 438 438 387 286 245 245 201 209 196 216 216 243 270 273 273 298 346 426 426 399 273 273 120 34 9 9 18 31
56 57 52 48 47 47 44 44 34 34 30 26 21 21 16 14 14 18 33 83 83 174 453 741 483 483 387 261 257 257 416 1040 1696 1696 1796 1732 1732 1658 1628 1395 1395 1252 1074 847 576 576 573 796 719 719 578 700 640 640 631 506 506 516 679 473 473 622 886 998 995 995 826 741 825 825 993 904 731 731 539 421 421 337 269 209 209 173 162 148 169 169 211 233 238 238 241 262 328 328 351 254 254 126 28 6 6 13 21
50 48 44 45 48 48 47 46 42 42 35 28 23 23 18 15 15 16 27 55 55 117 294 625 572 572 372 230 199 199 273 621 1439 1439 1755 1666 1666 1594 1515 1186 1186 1025 899 712 524 524 455 626 590 590 430 512 618 618 472 548 548 599 613 362 362 467 773 884 930 930 846 716 793 793 1004 954 811 811 550 407 407 296 229 193 193 176 130 121 107 107 144 182 205 205 226 248 291 291 291 220 220 101 21 5 5 9 20
48 40 31 35 42 42 48 48 47 47 38 31 27 27 20 15 15 16 23 34 34 60 180 490 563 563 337 223 163 163 181 342 1153 1153 1547 1674 1674 1510 1429 1025 1025 807 701 627 477 477 383 510 535 535 384 433 467 467 361 501 501 605 451 239 239 334 666 817 866 866 786 694 804 804 974 1010 819 819 560 390 390 282 234 196 196 178 130 90 81 81 100 153 174 174 212 233 254 254 256 194 194 92 12 4 4 8 20
45 34 24 23 35 35 48 53 48 48 44 33 27 27 22 17 17 16 23 29 29 26 113 300 492 492 312 189 119 119 122 196 765 765 1289 1516 1516 1521 1262 857 857 656 577 499 413 413 371 399 513 513 371 385 396 396 402 589 589 502 403 41 41 485 640 716 723 723 725 671 741 741 904 984 826 826 567 397 397 265 241 243 243 225 169 86 63 63 69 104 144 144 181 219 264 264 244 166 166 70 10 3 3 11 42
42 33 22 20 27 27 41 50 51 51 45 35 30 30 24 21 21 20 23 24 24 17 63 179 428 428 311 149 91 91 75 90 360 360 1013 1375 1375 1371 1101 698 698 531 505 465 378 378 387 554 586 586 403 369 353 353 582 523 523 413 293 134 134 563 616 655 626 626 625 612 679 679 800 878 797 797 605 400 400 296 249 297 297 310 222 124 94 94 67 69 91 91 132 188 231 231 193 136 136 36 10 5 5 31 86
38 31 24 23 30 30 38 48 52 52 48 39 33 33 23 19 19 19 22 20 20 16 21 115 367 367 303 142 54 54 48 38 159 159 753 1188 1188 1247 955 535 535 496 470 407 321 321 259 636 503 503 414 375 362 362 641 483 483 418 227 327 327 573 628 596 569 569 568 589 619 619 663 703 669 669 548 436 436 303 256 304 304 345 280 173 136 136 103 54 56 56 96 157 176 176 156 90 90 31 12 19 19 89 124
35 27 25 26 32 32 39 45 50 50 48 42 35 35 26 19 19 17 18 14 14 11 14 80 292 292 292 125 28 28 29 25 89 89 508 995 995 1048 885 452 452 430 446 321 267 267 12 622 398 398 454 334 427 427 511 365 365 336 154 517 517 613 679 682 617 617 579 566 596 596 567 513 521 521 465 388 388 286 239 286 286 325 258 178 147 147 130 60 30 30 47 122 142 142 123 64 64 28 27 74 74 130 132
28 25 18 15 22 22 32 42 47 47 51 47 41 41 33 25 25 20 16 11 11 8 10 40 242 242 279 131 24 24 28 23 36 36 360 760 760 818 713 392 392 400 364 292 298 298 490 677 333 333 440 321 444 444 313 251 251 296 187 596 596 692 770 775 742 742 735 686 646 646 545 431 385 385 362 339 339 269 222 245 245 307 260 182 132 132 139 86 36 36 36 72 110 110 97 57 57 37 65 114 114 138 137
24 20 14 9 12 12 20 35 44 44 49 45 38 38 32 26 26 21 14 9 9 8 10 26 160 160 278 124 29 29 26 19 21 21 217 517 517 561 557 337 337 327 319 186 698 698 795 651 323 323 406 329 407 407 249 246 246 368 466 635 635 703 828 915 875 875 951 861 740 740 561 442 338 338 294 274 274 230 185 228 228 288 244 166 118 118 141 111 57 57 42 60 98 98 57 41 41 46 84 141 141 143 108
18 15 12 15 11 11 13 17 26 26 30 28 23 23 20 16 16 13 9 7 7 6 8 16 105 105 268 154 38 38 18 13 6 6 63 327 327 431 366 301 301 317 277 557 759 759 722 495 361 361 291 347 391 391 265 281 281 325 606 678 678 756 889 932 932 932 1009 1006 881 881 648 459 348 348 278 237 237 214 166 211 211 296 252 151 105 105 126 131 96 96 61 80 85 85 48 39 39 59 125 151 151 146 97
10 8 10 17 15 15 12 10 10 10 11 11 7 7 5 4 4 3 4 3 3 4 6 10 67 67 265 173 48 48 5 5 1 1 7 201 201 379 253 244 244 142 338 817 738 738 619 363 368 368 378 366 382 382 284 323 323 246 615 687 687 770 907 993 904 904 938 1021 937 937 737 502 364 364 288 266 266 218 172 219 219 303 262 138 123 123 144 133 118 118 81 102 109 109 76 61 61 94 135 140 140 135 103
13 9 18 18 16 16 14 10 6 6 4 3 1 1 0 0 0 nan 0 2 2 2 3 6 40 40 246 212 21 21 10 0 1 1 2 183 183 287 204 198 198 216 664 796 717 717 601 374 324 324 420 432 336 336 226 316 316 287 667 662 662 784 967 1057 962 962 869 995 954 954 788 548 404 404 377 326 326 275 227 277 277 364 292 182 123 123 163 172 122 122 86 107 135 135 134 115 115 136 127 127 127 127 124
17 17 18 19 17 17 15 12 8 8 4 2 0 0 0 nan nan 0 0 1 1 1 2 4 18 18 197 207 42 42 13 10 5 5 16 206 206 174 48 115 115 350 791 775 699 699 528 420 315 315 382 386 270 270 158 307 307 496 654 675 675 799 982 1119 1020 1020 804 886 930 930 805 593 472 472 471 476 476 421 341 394 394 455 380 211 127 127 167 195 162 162 109 94 138 138 162 180 180 164 134 117 117 116 128
19 20 21 20 18 18 16 14 12 12 9 6 4 4 4 3 3 2 1 0 0 1 1 2 3 3 121 253 68 68 9 14 8 8 53 578 578 520 47 52 52 272 656 688 560 560 401 428 320 320 318 275 177 177 143 273 273 512 608 628 628 789 963 1137 1166 1166 968 880 884 884 844 663 563 563 528 587 587 625 640 640 640 707 605 372 271 271 224 226 214 214 196 155 184 184 187 217 217 221 144 124 124 105 138
19 22 22 21 19 19 19 18 15 15 11 7 7 7 9 4 4 3 0 1 1 0 1 4 6 6 121 208 50 50 9 15 14 14 24 362 362 549 203 107 107 207 489 588 548 548 466 470 414 414 356 242 166 166 103 53 53 519 552 610 610 763 971 1142 1179 1179 1040 943 946 946 947 753 616 616 582 571 571 601 650 721 721 719 615 460 329 329 282 256 260 260 222 201 226 226 236 224 224 227 187 183 183 143 161
28 19 18 24 20 20 17 18 16 16 12 5 9 9 10 1 1 2 nan 0 0 5 14 11 26 26 171 124 35 35 8 10 14 14 11 135 135 502 231 100 100 17 373 527 531 531 546 526 451 451 369 262 189 189 97 356 356 424 506 565 565 739 935 1153 1208 1208 1056 967 1008 1008 1013 847 776 776 668 595 595 616 635 772 772 806 665 440 390 390 318 290 263 263 224 229 276 276 261 248 248 234 215 212 212 187 185
25 23 20 20 13 13 9 12 12 12 16 6 3 3 4 3 3 2 nan 4 4 33 47 39 70 70 212 86 22 22 15 7 12 12 10 58 58 381 234 92 92 50 266 466 406 406 479 494 446 446 308 253 207 207 98 173 173 385 468 556 556 682 905 1168 1271 1271 1126 992 987 987 1032 950 913 913 761 652 652 605 714 787 787 944 793 576 517 517 380 326 270 270 248 233 261 261 290 274 274 239 246 246 246 219 192
34 28 28 22 19 19 15 19 11 11 9 15 7 7 1 5 5 24 25 24 24 80 96 91 112 112 225 118 34 34 24 14 19 19 26 5 5 146 273 90 90 88 259 417 379 379 289 313 268 268 217 208 185 185 98 39 39 322 413 490 490 633 882 1145 1335 1335 1132 969 967 967 1006 1055 977 977 855 739 739 665 758 876 876 1006 970 815 666 666 416 339 281 281 230 238 290 290 253 260 260 246 255 236 236 212 184
39 33 42 27 22 22 17 21 14 14 7 13 15 15 11 68 68 85 55 27 27 112 189 138 117 117 324 209 47 47 41 25 36 36 95 16 16 37 211 135 135 108 216 372 403 403 212 187 146 146 134 139 133 133 37 nan nan 293 335 456 456 622 825 1116 1355 1355 1255 984 942 942 982 949 955 955 913 790 790 717 815 929 929 1026 1031 962 804 804 429 325 319 319 240 223 297 297 283 227 227 254 262 245 245 222 177
47 38 38 37 31 31 25 18 20 20 22 19 23 23 120 138 138 62 65 72 72 161 199 214 149 149 324 321 52 52 52 23 34 34 40 76 76 20 91 180 180 86 153 367 316 316 257 200 130 130 98 90 80 80 13 nan nan 187 258 397 397 581 772 1050 1342 1342 1313 1084 1001 1001 1041 887 851 851 815 739 739 733 796 869 869 1010 1011 973 783 783 414 365 335 335 277 232 329 329 292 256 256 263 291 275 275 233 169
75 44 52 65 58 58 81 118 128 128 120 114 61 61 192 233 233 91 99 141 141 233 295 340 289 289 353 326 66 66 37 22 18 18 11 35 35 12 34 147 147 85 72 297 325 325 270 231 157 157 114 72 42 42 30 87 87 88 167 314 314 538 757 990 1305 1305 1424 1146 1059 1059 1101 901 789 789 720 684 684 649 635 750 750 871 915 921 785 785 485 428 400 400 395 290 319 319 282 265 265 274 300 283 283 221 178
97 55 86 133 114 114 194 287 301 301 292 245 196 196 261 359 359 239 242 200 200 298 335 345 285 285 296 251 87 87 36 22 3 3 12 2 2 2 18 130 130 151 49 132 386 386 238 250 202 202 129 67 39 39 54 75 75 38 83 239 239 448 640 930 1320 1320 1448 1260 1216 1216 1217 998 805 805 665 596 596 557 495 502 502 672 818 901 815 815 643 573 577 577 539 468 528 528 270 215 215 285 335 293 293 231 172
99 83 77 86 184 184 298 394 430 430 362 349 293 293 339 441 441 378 278 250 250 317 361 290 263 263 236 251 80 80 23 21 2 2 4 1 1 1 10 83 83 170 44 45 305 305 248 205 186 186 130 72 52 52 51 79 79 7 26 123 123 345 569 791 1111 1111 1370 1383 1292 1292 1203 1105 861 861 716 607 607 532 448 490 490 524 688 873 846 846 746 667 666 666 624 622 621 621 252 182 182 297 375 329 329 224 152
95 140 176 294 376 376 441 537 509 509 481 424 349 349 498 475 475 415 354 364 364 362 423 321 291 291 255 253 133 133 21 11 nan nan 3 0 0 nan 3 22 22 178 115 56 147 147 301 239 185 185 121 87 85 85 65 72 72 nan 2 45 45 214 404 609 883 883 1235 1404 1371 1371 1222 1172 963 963 808 688 688 577 547 532 532 506 603 784 870 870 812 725 639 639 594 641 554 554 251 205 205 284 365 344 344 233 146
83 94 134 322 293 293 503 780 762 762 816 645 562 562 596 656 656 551 493 488 488 500 495 383 337 337 279 212 182 182 30 4 0 0 0 2 2 1 6 19 19 62 238 69 136 136 311 259 186 186 119 109 100 100 86 120 120 nan nan nan nan 65 221 409 677 677 973 1138 1282 1282 1299 1197 1066 1066 933 844 844 761 728 746 746 617 589 662 840 840 784 741 619 619 504 514 431 431 258 261 261 297 381 358 358 245 156
71 75 92 151 268 268 538 826 1008 1008 924 740 692 692 812 758 758 691 625 578 578 504 477 386 307 307 269 198 217 217 60 0 0 0 1 10 10 19 24 35 35 94 247 220 177 177 262 246 203 203 138 126 136 136 116 129 129 27 nan nan nan 0 82 224 416 416 600 774 1014 1014 1275 1272 1172 1172 1199 1088 1088 998 1033 872 872 738 605 608 675 675 676 673 569 569 482 437 316 316 301 269 269 324 391 338 338 218 151
54 110 129 240 363 363 382 291 397 397 500 345 472 472 913 869 869 776 660 624 624 613 558 466 387 387 327 177 198 198 79 1 0 0 3 24 24 47 69 114 114 227 312 325 210 210 454 252 223 223 162 146 151 151 133 139 139 93 nan nan nan nan 1 86 195 195 314 498 774 774 1187 1288 1242 1242 1303 1296 1296 1249 1231 1042 1042 830 691 595 556 556 658 620 580 580 502 429 298 298 257 305 305 348 406 319 319 212 129
16 89 150 174 284 284 264 230 269 269 290 190 466 466 1042 1051 1051 882 796 651 651 637 599 524 482 482 358 152 159 159 101 5 1 1 5 38 38 77 145 226 226 235 361 337 252 252 389 306 225 225 178 145 166 166 141 149 149 116 21 nan nan nan nan 2 53 53 116 290 606 606 937 1210 1258 1258 1434 1491 1491 1437 1383 1153 1153 883 740 638 543 543 675 636 631 631 589 451 292 292 274 296 296 327 386 313 313 209 125
10 45 187 161 234 234 333 305 278 278 273 490 781 781 1251 1228 1228 1049 987 744 744 677 659 520 455 455 411 207 121 121 59 15 2 2 3 32 32 74 84 102 102 152 219 332 317 317 333 392 235 235 178 144 157 157 145 116 116 86 63 nan nan nan nan nan 4 4 16 140 424 424 804 1144 1240 1240 1427 1495 1495 1553 1409 1050 1050 896 750 677 542 542 644 755 720 720 682 556 395 395 337 344 344 370 372 312 312 223 139
8 29 134 197 187 187 254 354 283 283 363 950 1072 1072 1289 1306 1306 1136 906 735 735 575 609 513 424 424 422 248 137 137 90 25 3 3 0 17 17 49 44 58 58 99 145 308 336 336 298 332 261 261 199 135 119 119 100 76 76 50 49 1 1 nan nan nan nan nan 0 30 245 245 634 992 1141 1141 1268 1448 1448 1450 1265 979 979 819 769 694 588 588 695 771 775 775 779 716 515 515 435 383 383 380 359 279 279 214 152
11 43 138 259 245 245 240 405 494 494 366 763 934 934 979 1043 1043 1086 991 655 655 713 571 498 425 425 337 267 129 129 85 40 3 3 1 7 7 41 41 33 33 107 77 253 446 446 339 236 241 241 183 106 77 77 73 44 44 20 34 34 34 1 nan 3 nan nan nan 2 97 97 435 764 919 919 1130 1299 1299 1293 1176 886 886 739 724 717 678 678 753 755 795 795 873 869 749 749 549 461 461 402 328 250 250 205 145
21 85 230 319 296 296 241 410 593 593 484 698 661 661 736 862 862 852 907 867 867 779 543 472 464 464 347 262 118 118 73 34 5 5 3 6 6 33 59 53 53 121 93 209 463 463 371 271 270 270 116 71 71 71 45 16 16 6 13 32 32 39 44 58 44 44 nan nan 11 11 165 439 695 695 953 1149 1149 1139 1046 878 878 727 710 740 703 703 778 782 820 820 935 972 845 845 646 492 492 406 330 251 251 237 172
22 51 163 412 361 361 360 367 560 560 568 617 482 482 549 669 669 741 816 917 917 641 533 477 434 434 344 243 131 131 85 35 1 1 1 3 3 20 55 73 73 151 132 107 253 253 382 351 268 268 80 44 50 50 29 13 13 4 5 14 14 35 44 67 91 91 105 nan nan nan 38 177 413 413 793 1002 1002 1041 977 893 893 733 659 692 761 761 804 808 810 810 929 964 901 901 704 514 514 399 303 264 264 227 199
11 14 25 114 249 249 232 293 396 396 475 458 356 356 364 473 473 629 799 765 765 603 441 498 385 385 254 201 93 93 98 58 1 1 0 0 0 9 42 76 76 156 199 125 78 78 204 354 185 185 59 27 37 37 26 8 8 6 2 2 2 21 27 50 83 83 192 124 nan nan 0 38 186 186 590 878 878 901 927 871 871 721 648 648 752 752 761 762 800 800 926 942 843 843 649 469 469 362 295 254 254 238 208
10 9 12 17 22 22 25 37 202 202 389 421 359 359 367 441 441 434 624 762 762 739 599 592 332 332 191 128 79 79 59 58 1 1 0 nan nan 1 27 92 92 162 197 194 81 81 164 236 151 151 71 29 24 24 29 12 12 9 2 nan nan 15 17 7 17 17 130 233 197 197 nan 9 85 85 357 698 698 786 846 864 864 755 617 551 620 620 656 654 757 757 877 898 769 769 604 425 425 326 264 249 249 252 218
8 10 9 8 14 14 16 10 15 15 254 400 397 397 443 522 522 622 526 745 745 746 709 636 394 394 230 154 98 98 61 32 2 2 0 1 1 nan 7 59 59 159 173 200 144 144 138 180 132 132 75 35 32 32 27 23 23 15 4 nan nan 13 3 nan 12 12 75 135 213 213 17 nan 38 38 246 516 516 670 664 725 725 618 589 582 611 611 612 611 717 717 902 895 799 799 595 387 387 271 220 229 229 244 235
6 9 15 13 14 14 10 8 9 9 11 24 126 126 273 466 466 605 578 512 512 557 611 585 520 520 418 210 87 87 64 27 4 4 3 2 2 nan 10 36 36 109 157 160 147 147 179 182 51 51 19 40 21 21 31 33 33 19 10 8 8 13 29 54 48 48 57 54 85 85 211 217 nan nan 22 104 104 186 182 217 217 234 430 690 764 764 657 615 681 681 727 772 726 726 657 532 532 375 244 215 215 204 213
8 10 13 12 12 12 9 7 8 8 12 12 17 17 32 102 102 231 465 444 444 452 550 556 492 492 441 267 120 120 62 24 7 7 4 2 2 nan 8 55 55 116 155 165 122 122 95 123 55 55 55 71 28 28 29 32 32 16 13 10 10 16 36 56 46 46 55 49 61 61 130 369 250 250 21 19 19 26 36 52 52 71 208 533 727 727 650 613 600 600 609 615 613 613 614 578 578 463 336 264 264 234 226
8 10 10 10 8 8 7 6 6 6 12 15 11 11 14 21 21 28 99 355 355 369 536 605 652 652 439 326 186 186 108 38 15 15 7 4 4 nan 5 68 68 124 165 163 137 137 89 47 84 84 52 46 43 43 9 14 14 14 24 13 13 19 34 39 43 43 48 48 48 48 81 235 443 443 419 153 153 175 66 0 0 8 60 246 543 543 607 498 482 482 527 479 504 504 541 563 563 536 398 337 337 269 258
7 9 8 8 8 8 7 6 6 6 13 14 10 10 10 13 13 13 13 41 41 419 538 632 611 611 454 426 230 230 181 98 31 31 18 7 7 1 7 62 62 84 115 178 149 149 129 43 87 87 35 39 56 56 12 1 1 12 19 24 24 18 32 35 30 30 47 45 31 31 65 174 298 298 493 413 413 351 154 nan nan nan 1 52 243 243 534 385 403 403 463 410 415 415 467 523 523 518 465 375 375 323 295
6 7 9 6 6 6 7 6 8 8 12 14 10 10 9 11 11 10 6 9 9 76 518 649 652 652 551 393 337 337 280 179 126 126 20 18 18 7 6 52 52 64 59 74 109 109 112 94 84 84 46 40 88 88 55 9 9 16 17 26 26 26 30 39 33 33 39 38 35 35 43 90 174 174 484 360 360 223 155 9 9 nan nan nan 32 32 281 218 258 258 383 399 372 372 399 427 427 481 484 442 442 363 333
5 6 7 6 8 8 6 6 8 8 12 14 10 10 9 10 10 9 7 5 5 7 131 560 672 672 619 482 552 552 446 306 212 212 28 74 74 16 13 36 36 60 61 46 64 64 64 101 88 88 48 50 92 92 63 47 47 47 22 21 21 29 42 51 49 49 37 37 27 27 32 72 137 137 394 325 325 153 92 111 111 nan nan nan nan nan 52 45 109 109 284 479 411 411 386 393 393 427 482 467 467 429 371
6 5 5 6 7 7 5 6 9 9 12 14 14 14 12 12 12 9 7 7 7 3 9 465 515 515 537 499 531 531 509 421 170 170 53 40 40 26 30 23 23 49 80 67 35 35 33 89 96 96 48 68 100 100 82 56 56 60 48 31 31 42 57 66 64 64 48 36 27 27 37 100 152 152 314 231 231 146 104 150 150 106 nan nan nan nan nan 1 32 32 180 442 494 494 433 397 397 411 442 471 471 477 409
5 4 5 6 6 6 5 6 8 8 11 15 17 17 16 11 11 8 6 5 5 3 4 107 475 475 494 461 512 512 414 272 39 39 39 8 8 10 25 14 14 52 101 69 9 9 12 48 106 106 93 108 104 104 67 33 33 48 79 41 41 52 67 77 84 84 64 51 32 32 58 148 172 172 204 183 183 157 158 165 165 160 38 0 nan nan nan nan 4 4 77 314 467 467 466 450 450 397 404 474 474 499 495
6 5 5 5 5 5 5 7 8 8 12 15 16 16 15 12 12 9 5 3 3 3 5 9 84 84 426 362 463 463 317 133 34 34 33 10 10 1 2 0 0 62 114 94 8 8 2 13 94 94 92 103 103 103 48 30 30 76 179 49 49 45 70 76 93 93 90 69 38 38 76 172 168 168 184 163 163 166 197 170 170 122 68 37 5 5 7 2 nan nan 43 156 264 264 414 459 459 442 400 420 420 494 541
6 6 5 5 6 6 8 8 8 8 14 14 12 12 12 8 8 7 6 3 3 4 6 5 7 7 185 219 125 125 157 105 41 41 117 48 48 38 32 31 31 63 128 137 57 57 10 14 50 50 66 86 98 98 48 26 26 67 152 110 110 48 87 105 127 127 122 87 66 66 112 195 205 205 193 164 164 214 251 168 168 102 67 37 2 2 0 nan nan nan nan 97 229 229 306 436 436 483 413 409 409 481 568
2 5 6 4 5 5 5 6 7 7 10 12 9 9 6 6 6 6 8 7 7 5 5 6 4 4 12 174 37 37 50 34 54 54 192 76 76 47 66 52 52 46 88 125 124 124 65 45 49 49 67 75 95 95 73 37 37 54 136 164 164 145 121 166 168 168 162 112 101 101 158 196 266 266 258 279 279 247 237 133 133 94 73 56 15 15 28 nan nan nan nan nan 145 145 229 367 367 530 502 503 503 539 614
nan 0 4 5 5 5 5 3 5 5 7 9 5 5 5 8 8 6 7 7 7 6 5 7 4 4 5 9 108 108 26 25 82 82 90 127 127 71 71 62 62 52 95 111 106 106 70 51 58 58 79 88 91 91 80 46 46 36 119 191 191 194 251 217 221 221 198 147 116 116 183 195 254 254 305 354 354 237 214 147 147 114 110 73 74 74 89 3 nan nan nan nan nan nan 35 337 337 586 658 694 694 733 767
nan nan 0 2 5 5 5 3 5 5 5 7 3 3 5 8 8 8 6 5 5 5 5 6 5 5 4 5 11 11 33 11 29 29 52 138 138 105 78 58 58 77 80 73 66 66 65 65 85 85 119 130 80 80 65 54 54 47 96 184 184 187 228 290 267 267 236 176 136 136 174 209 212 212 301 321 321 230 199 163 163 142 144 93 44 44 18 nan nan nan nan nan nan nan nan 330 330 465 704 856 856 880 887
nan nan nan nan 2 2 5 4 4 4 5 6 4 4 4 7 7 12 8 6 6 4 6 6 6 6 5 4 7 7 59 16 50 50 73 86 86 120 99 77 77 62 54 32 34 34 76 132 115 115 143 127 61 61 45 51 51 69 98 153 153 178 219 231 283 283 272 211 227 227 203 186 200 200 254 267 267 225 176 154 154 163 146 98 58 58 112 59 59 59 24 2 nan nan nan 90 90 333 708 898 898 887 972
nan nan nan nan nan nan 3 5 7 7 5 5 5 5 4 5 5 10 8 6 6 3 4 6 7 7 6 4 6 6 14 38 50 50 93 83 83 87 98 148 148 99 60 31 31 31 74 98 78 78 115 96 64 64 66 46 46 67 93 142 142 168 170 177 228 228 236 209 261 261 241 177 203 203 209 224 224 192 162 155 155 152 163 112 148 148 224 206 135 135 95 50 6 6 nan nan nan 315 703 927 927 929 964
0 nan nan nan nan nan nan 4 8 8 7 7 5 5 5 5 5 6 7 5 5 5 5 5 5 5 8 7 5 5 12 15 25 25 66 76 76 91 90 106 106 122 119 48 5 5 30 33 71 71 106 83 50 50 12 13 13 60 73 119 119 166 140 94 111 111 154 220 238 238 223 189 181 181 209 204 204 159 172 165 165 144 172 155 183 183 266 250 84 84 173 66 42 42 nan 34 34 250 727 912 912 951 936
nan nan nan nan nan nan nan 0 3 3 7 8 5 5 5 5 5 5 6 6 6 6 5 4 3 3 7 7 6 6 6 9 18 18 16 79 79 86 133 87 87 55 39 7 nan nan 1 14 66 66 109 64 48 48 6 5 5 47 71 56 56 131 123 48 28 28 70 187 292 292 231 197 187 187 202 200 200 150 156 175 175 173 184 203 231 231 157 0 nan nan nan nan nan nan nan 23 23 222 644 859 859 930 874
nan nan nan nan nan nan nan nan nan nan 0 4 5 5 5 5 5 5 5 5 5 9 5 3 3 3 6 5 5 5 4 4 6 6 13 34 34 83 155 99 99 64 40 4 1 1 0 6 52 52 35 34 45 45 11 6 6 29 56 33 33 37 80 36 7 7 8 84 191 191 263 207 200 200 213 214 214 173 151 171 171 164 180 218 283 283 191 178 10 10 nan nan nan nan nan 21 21 155 485 729 729 798 796
nan nan nan nan nan nan nan nan nan nan nan nan 2 2 5 5 5 4 4 6 6 7 5 3 4 4 4 5 6 6 5 3 2 2 4 14 14 22 109 97 97 69 39 17 2 2 1 1 21 21 23 37 49 49 40 31 31 31 36 11 11 3 22 48 21 21 6 12 51 51 193 272 266 266 264 231 231 197 153 148 148 149 164 188 251 251 179 203 172 172 91 5 nan nan nan 8 8 118 362 613 613 677 747